Year,Month,Day,Hour,Minute,Value (Times are PST for temperature in C)
2009,06,29,00,00,10.90
2009,06,29,00,01,10.90
2009,06,29,00,02,10.90
2009,06,29,00,03,10.90
2009,06,29,00,04,10.90
2009,06,29,00,05,10.90
2009,06,29,00,06,10.90
2009,06,29,00,07,10.90
2009,06,29,00,08,10.90
2009,06,29,00,09,10.90
2009,06,29,00,10,10.90
2009,06,29,00,11,10.90
2009,06,29,00,12,10.90
2009,06,29,00,16,10.80
2009,06,29,00,17,10.80
2009,06,29,00,18,10.80
2009,06,29,00,19,10.80
2009,06,29,00,20,10.80
2009,06,29,00,21,10.80
2009,06,29,00,22,10.80
2009,06,29,00,23,10.70
2009,06,29,00,24,10.70
2009,06,29,00,25,10.70
2009,06,29,00,26,10.70
2009,06,29,00,27,10.70
2009,06,29,00,28,10.70
2009,06,29,00,29,10.70
2009,06,29,00,30,10.70
2009,06,29,00,31,10.70
2009,06,29,00,32,10.60
2009,06,29,00,33,10.60
2009,06,29,00,34,10.60
2009,06,29,00,35,10.60
2009,06,29,00,36,10.60
2009,06,29,00,37,10.60
2009,06,29,00,38,10.60
2009,06,29,00,39,10.60
2009,06,29,00,40,10.60
2009,06,29,00,41,10.60
2009,06,29,00,42,10.60
2009,06,29,00,43,10.60
2009,06,29,00,44,10.60
2009,06,29,00,45,10.60
2009,06,29,00,46,10.50
2009,06,29,00,47,10.40
2009,06,29,00,48,10.40
2009,06,29,00,49,10.40
2009,06,29,00,50,10.40
2009,06,29,00,51,10.40
2009,06,29,00,52,10.40
2009,06,29,00,53,10.40
2009,06,29,00,54,10.40
2009,06,29,00,55,10.40
2009,06,29,00,56,10.30
2009,06,29,00,57,10.30
2009,06,29,00,58,10.30
2009,06,29,00,59,10.30
2009,06,29,01,00,10.30
2009,06,29,01,01,10.30
2009,06,29,01,02,10.20
2009,06,29,01,03,10.20
2009,06,29,01,04,10.20
2009,06,29,01,05,10.20
2009,06,29,01,06,10.20
2009,06,29,01,07,10.20
2009,06,29,01,08,10.20
2009,06,29,01,09,10.20
2009,06,29,01,10,10.10
2009,06,29,01,11,10.10
2009,06,29,01,12,10.10
2009,06,29,01,13,10.10
2009,06,29,01,14,10.10
2009,06,29,01,15,10.10
2009,06,29,01,16,10.10
2009,06,29,01,17,10.10
2009,06,29,01,18,10.10
2009,06,29,01,19,10.10
2009,06,29,01,20,10.10
2009,06,29,01,21,10.10
2009,06,29,01,22,10.10
2009,06,29,01,23,10.10
2009,06,29,01,24,10.10
2009,06,29,01,25,10.10
2009,06,29,01,26,10.10
2009,06,29,01,27,10.10
2009,06,29,01,28,10.00
2009,06,29,01,29,9.90
2009,06,29,01,30,9.90
2009,06,29,01,31,9.90
2009,06,29,01,32,9.90
2009,06,29,01,33,9.90
2009,06,29,01,34,9.90
2009,06,29,01,35,9.90
2009,06,29,01,36,9.90
2009,06,29,01,37,9.90
2009,06,29,01,38,9.90
2009,06,29,01,39,9.90
2009,06,29,01,40,9.90
2009,06,29,01,41,9.90
2009,06,29,01,42,9.90
2009,06,29,01,43,9.80
2009,06,29,01,44,9.80
2009,06,29,01,45,9.80
2009,06,29,01,46,9.80
2009,06,29,01,47,9.80
2009,06,29,01,48,9.80
2009,06,29,01,49,9.80
2009,06,29,01,50,9.80
2009,06,29,01,51,9.80
2009,06,29,01,52,9.80
2009,06,29,01,53,9.80
2009,06,29,01,54,9.70
2009,06,29,01,55,9.70
2009,06,29,01,56,9.70
2009,06,29,01,57,9.70
2009,06,29,01,58,9.70
2009,06,29,01,59,9.70
2009,06,29,02,00,9.70
2009,06,29,02,01,9.70
2009,06,29,02,02,9.70
2009,06,29,02,03,9.70
2009,06,29,02,04,9.70
2009,06,29,02,05,9.70
2009,06,29,02,06,9.70
2009,06,29,02,07,9.70
2009,06,29,02,08,9.70
2009,06,29,02,09,9.60
2009,06,29,02,10,9.60
2009,06,29,02,11,9.60
2009,06,29,02,12,9.60
2009,06,29,02,13,9.60
2009,06,29,02,14,9.60
2009,06,29,02,15,9.60
2009,06,29,02,16,9.60
2009,06,29,02,17,9.60
2009,06,29,02,18,9.60
2009,06,29,02,19,9.50
2009,06,29,02,20,9.50
2009,06,29,02,21,9.50
2009,06,29,02,22,9.50
2009,06,29,02,23,9.50
2009,06,29,02,24,9.50
2009,06,29,02,25,9.50
2009,06,29,02,26,9.40
2009,06,29,02,27,9.40
2009,06,29,02,28,9.40
2009,06,29,02,29,9.40
2009,06,29,02,30,9.40
2009,06,29,02,31,9.40
2009,06,29,02,32,9.40
2009,06,29,02,33,9.40
2009,06,29,02,34,9.40
2009,06,29,02,35,9.40
2009,06,29,02,36,9.40
2009,06,29,02,37,9.40
2009,06,29,02,38,9.40
2009,06,29,02,39,9.40
2009,06,29,02,40,9.40
2009,06,29,02,41,9.40
2009,06,29,02,42,9.40
2009,06,29,02,43,9.30
2009,06,29,02,44,9.30
2009,06,29,02,45,9.30
2009,06,29,02,46,9.30
2009,06,29,02,47,9.30
2009,06,29,02,48,9.30
2009,06,29,02,49,9.30
2009,06,29,02,50,9.30
2009,06,29,02,51,9.30
2009,06,29,02,52,9.30
2009,06,29,02,53,9.30
2009,06,29,02,54,9.30
2009,06,29,02,55,9.30
2009,06,29,02,56,9.30
2009,06,29,02,57,9.30
2009,06,29,02,58,9.30
2009,06,29,02,59,9.30
2009,06,29,03,00,9.30
2009,06,29,03,01,9.30
2009,06,29,03,02,9.20
2009,06,29,03,03,9.20
2009,06,29,03,04,9.20
2009,06,29,03,05,9.20
2009,06,29,03,06,9.20
2009,06,29,03,07,9.20
2009,06,29,03,08,9.20
2009,06,29,03,09,9.20
2009,06,29,03,10,9.20
2009,06,29,03,11,9.20
2009,06,29,03,12,9.20
2009,06,29,03,13,9.20
2009,06,29,03,14,9.20
2009,06,29,03,15,9.20
2009,06,29,03,16,9.20
2009,06,29,03,17,9.20
2009,06,29,03,18,9.20
2009,06,29,03,19,9.20
2009,06,29,03,20,9.20
2009,06,29,03,21,9.20
2009,06,29,03,22,9.20
2009,06,29,03,23,9.20
2009,06,29,03,24,9.20
2009,06,29,03,25,9.20
2009,06,29,03,26,9.20
2009,06,29,03,27,9.20
2009,06,29,03,28,9.20
2009,06,29,03,29,9.20
2009,06,29,03,30,9.20
2009,06,29,03,31,9.20
2009,06,29,03,32,9.20
2009,06,29,03,33,9.20
2009,06,29,03,34,9.10
2009,06,29,03,35,9.10
2009,06,29,03,36,9.10
2009,06,29,03,37,9.10
2009,06,29,03,38,9.10
2009,06,29,03,39,9.10
2009,06,29,03,40,9.10
2009,06,29,03,41,9.10
2009,06,29,03,42,9.10
2009,06,29,03,43,9.10
2009,06,29,03,44,9.10
2009,06,29,03,45,9.10
2009,06,29,03,46,9.00
2009,06,29,03,47,9.00
2009,06,29,03,48,9.00
2009,06,29,03,49,9.00
2009,06,29,03,50,9.00
2009,06,29,03,51,9.00
2009,06,29,03,52,9.00
2009,06,29,03,53,9.00
2009,06,29,03,54,8.90
2009,06,29,03,55,8.90
2009,06,29,03,56,8.90
2009,06,29,03,57,8.90
2009,06,29,03,58,8.90
2009,06,29,03,59,8.90
2009,06,29,04,00,8.90
2009,06,29,04,01,8.90
2009,06,29,04,02,8.90
2009,06,29,04,03,8.90
2009,06,29,04,04,8.90
2009,06,29,04,05,8.90
2009,06,29,04,06,8.80
2009,06,29,04,07,8.80
2009,06,29,04,08,8.80
2009,06,29,04,09,8.80
2009,06,29,04,10,8.80
2009,06,29,04,11,8.80
2009,06,29,04,12,8.80
2009,06,29,04,13,8.80
2009,06,29,04,14,8.80
2009,06,29,04,15,8.80
2009,06,29,04,16,8.80
2009,06,29,04,17,8.80
2009,06,29,04,18,8.80
2009,06,29,04,19,8.80
2009,06,29,04,20,8.70
2009,06,29,04,21,8.70
2009,06,29,04,22,8.70
2009,06,29,04,23,8.70
2009,06,29,04,24,8.70
2009,06,29,04,25,8.70
2009,06,29,04,26,8.70
2009,06,29,04,27,8.70
2009,06,29,04,28,8.70
2009,06,29,04,29,8.70
2009,06,29,04,30,8.70
2009,06,29,04,31,8.70
2009,06,29,04,32,8.70
2009,06,29,04,33,8.70
2009,06,29,04,34,8.70
2009,06,29,04,35,8.70
2009,06,29,04,36,8.70
2009,06,29,04,37,8.70
2009,06,29,04,38,8.70
2009,06,29,04,39,8.70
2009,06,29,04,40,8.70
2009,06,29,04,41,8.70
2009,06,29,04,42,8.70
2009,06,29,04,43,8.70
2009,06,29,04,44,8.70
2009,06,29,04,45,8.70
2009,06,29,04,46,8.70
2009,06,29,04,47,8.70
2009,06,29,04,48,8.70
2009,06,29,04,49,8.70
2009,06,29,04,50,8.70
2009,06,29,04,51,8.70
2009,06,29,04,52,8.70
2009,06,29,04,53,8.70
2009,06,29,04,54,8.70
2009,06,29,04,55,8.70
2009,06,29,04,56,8.70
2009,06,29,04,57,8.70
2009,06,29,04,58,8.70
2009,06,29,04,59,8.70
2009,06,29,05,00,8.70
2009,06,29,05,01,8.70
2009,06,29,05,02,8.70
2009,06,29,05,03,8.70
2009,06,29,05,04,8.70
2009,06,29,05,05,8.70
2009,06,29,05,06,8.70
2009,06,29,05,07,8.70
2009,06,29,05,08,8.70
2009,06,29,05,09,8.70
2009,06,29,05,10,8.70
2009,06,29,05,11,8.70
2009,06,29,05,12,8.70
2009,06,29,05,13,8.70
2009,06,29,05,14,8.70
2009,06,29,05,15,8.70
2009,06,29,05,16,8.70
2009,06,29,05,17,8.70
2009,06,29,05,18,8.70
2009,06,29,05,19,8.70
2009,06,29,05,20,8.70
2009,06,29,05,21,8.70
2009,06,29,05,22,8.70
2009,06,29,05,23,8.70
2009,06,29,05,24,8.70
2009,06,29,05,25,8.70
2009,06,29,05,26,8.70
2009,06,29,05,27,8.80
2009,06,29,05,28,8.80
2009,06,29,05,29,8.80
2009,06,29,05,30,8.80
2009,06,29,05,31,8.80
2009,06,29,05,32,8.80
2009,06,29,05,33,8.80
2009,06,29,05,34,8.80
2009,06,29,05,35,8.80
2009,06,29,05,36,8.80
2009,06,29,05,37,8.80
2009,06,29,05,38,8.90
2009,06,29,05,39,8.90
2009,06,29,05,40,8.90
2009,06,29,05,41,9.00
2009,06,29,05,42,9.00
2009,06,29,05,43,9.00
2009,06,29,05,44,9.10
2009,06,29,05,45,9.10
2009,06,29,05,46,9.10
2009,06,29,05,47,9.20
2009,06,29,05,48,9.20
2009,06,29,05,49,9.20
2009,06,29,05,50,9.30
2009,06,29,05,51,9.30
2009,06,29,05,52,9.40
2009,06,29,05,53,9.50
2009,06,29,05,54,9.50
2009,06,29,05,55,9.60
2009,06,29,05,56,9.60
2009,06,29,05,57,9.70
2009,06,29,05,58,9.70
2009,06,29,05,59,9.80
2009,06,29,06,00,9.90
2009,06,29,06,01,9.90
2009,06,29,06,02,10.10
2009,06,29,06,03,10.10
2009,06,29,06,04,10.10
2009,06,29,06,05,10.20
2009,06,29,06,06,10.20
2009,06,29,06,07,10.30
2009,06,29,06,08,10.40
2009,06,29,06,09,10.40
2009,06,29,06,10,10.50
2009,06,29,06,11,10.60
2009,06,29,06,12,10.80
2009,06,29,06,13,10.80
2009,06,29,06,14,10.90
2009,06,29,06,15,10.90
2009,06,29,06,16,11.10
2009,06,29,06,17,11.10
2009,06,29,06,18,11.10
2009,06,29,06,19,11.20
2009,06,29,06,20,11.20
2009,06,29,06,21,11.30
2009,06,29,06,22,11.30
2009,06,29,06,23,11.40
2009,06,29,06,24,11.40
2009,06,29,06,25,11.40
2009,06,29,06,26,11.40
2009,06,29,06,27,11.50
2009,06,29,06,28,11.60
2009,06,29,06,29,11.60
2009,06,29,06,30,11.60
2009,06,29,06,31,11.60
2009,06,29,06,32,11.60
2009,06,29,06,33,11.70
2009,06,29,06,34,11.70
2009,06,29,06,35,11.80
2009,06,29,06,36,11.80
2009,06,29,06,37,11.80
2009,06,29,06,38,11.90
2009,06,29,06,39,11.90
2009,06,29,06,40,11.90
2009,06,29,06,41,12.00
2009,06,29,06,42,12.00
2009,06,29,06,43,12.10
2009,06,29,06,44,12.10
2009,06,29,06,45,12.20
2009,06,29,06,46,12.20
2009,06,29,06,47,12.20
2009,06,29,06,48,12.20
2009,06,29,06,49,12.30
2009,06,29,06,50,12.30
2009,06,29,06,51,12.30
2009,06,29,06,52,12.30
2009,06,29,06,53,12.30
2009,06,29,06,54,12.30
2009,06,29,06,55,12.30
2009,06,29,06,56,12.40
2009,06,29,06,57,12.40
2009,06,29,06,58,12.40
2009,06,29,06,59,12.40
2009,06,29,07,00,12.40
2009,06,29,07,01,12.50
2009,06,29,07,02,12.50
2009,06,29,07,03,12.50
2009,06,29,07,04,12.50
2009,06,29,07,05,12.60
2009,06,29,07,06,12.60
2009,06,29,07,07,12.60
2009,06,29,07,08,12.60
2009,06,29,07,09,12.70
2009,06,29,07,10,12.70
2009,06,29,07,11,12.70
2009,06,29,07,12,12.80
2009,06,29,07,13,12.80
2009,06,29,07,14,12.80
2009,06,29,07,15,12.80
2009,06,29,07,16,12.80
2009,06,29,07,17,12.80
2009,06,29,07,18,12.90
2009,06,29,07,19,12.90
2009,06,29,07,20,13.00
2009,06,29,07,21,13.00
2009,06,29,07,22,13.00
2009,06,29,07,23,13.10
2009,06,29,07,24,13.10
2009,06,29,07,25,13.10
2009,06,29,07,26,13.10
2009,06,29,07,27,13.10
2009,06,29,07,28,13.10
2009,06,29,07,29,13.20
2009,06,29,07,30,13.20
2009,06,29,07,31,13.20
2009,06,29,07,32,13.30
2009,06,29,07,33,13.30
2009,06,29,07,34,13.30
2009,06,29,07,35,13.30
2009,06,29,07,36,13.30
2009,06,29,07,37,13.30
2009,06,29,07,38,13.30
2009,06,29,07,39,13.30
2009,06,29,07,40,13.40
2009,06,29,07,41,13.40
2009,06,29,07,42,13.40
2009,06,29,07,43,13.40
2009,06,29,07,44,13.40
2009,06,29,07,45,13.50
2009,06,29,07,46,13.50
2009,06,29,07,47,13.50
2009,06,29,07,48,13.50
2009,06,29,07,49,13.60
2009,06,29,07,50,13.60
2009,06,29,07,51,13.60
2009,06,29,07,52,13.60
2009,06,29,07,53,13.70
2009,06,29,07,54,13.70
2009,06,29,07,55,13.70
2009,06,29,07,56,13.70
2009,06,29,07,57,13.70
2009,06,29,07,58,13.70
2009,06,29,07,59,13.70
2009,06,29,08,00,13.80
2009,06,29,08,01,13.80
2009,06,29,08,02,13.80
2009,06,29,08,03,13.80
2009,06,29,08,04,13.90
2009,06,29,08,05,13.90
2009,06,29,08,06,13.90
2009,06,29,08,07,13.90
2009,06,29,08,08,14.00
2009,06,29,08,09,14.00
2009,06,29,08,10,14.00
2009,06,29,08,11,14.10
2009,06,29,08,12,14.10
2009,06,29,08,13,14.10
2009,06,29,08,14,14.10
2009,06,29,08,15,14.20
2009,06,29,08,16,14.20
2009,06,29,08,17,14.20
2009,06,29,08,18,14.20
2009,06,29,08,19,14.30
2009,06,29,08,20,14.30
2009,06,29,08,21,14.30
2009,06,29,08,22,14.30
2009,06,29,08,23,14.30
2009,06,29,08,24,14.40
2009,06,29,08,25,14.40
2009,06,29,08,26,14.50
2009,06,29,08,27,14.50
2009,06,29,08,28,14.50
2009,06,29,08,29,14.60
2009,06,29,08,30,14.60
2009,06,29,08,31,14.60
2009,06,29,08,32,14.60
2009,06,29,08,33,14.60
2009,06,29,08,34,14.60
2009,06,29,08,35,14.60
2009,06,29,08,36,14.60
2009,06,29,08,37,14.70
2009,06,29,08,38,14.70
2009,06,29,08,39,14.70
2009,06,29,08,40,14.80
2009,06,29,08,41,14.80
2009,06,29,08,42,14.80
2009,06,29,08,43,14.80
2009,06,29,08,44,14.90
2009,06,29,08,45,14.90
2009,06,29,08,46,14.90
2009,06,29,08,47,15.00
2009,06,29,08,48,15.00
2009,06,29,08,49,15.10
2009,06,29,08,50,15.10
2009,06,29,08,51,15.10
2009,06,29,08,52,15.20
2009,06,29,08,53,15.20
2009,06,29,08,54,15.20
2009,06,29,08,55,15.20
2009,06,29,08,56,15.20
2009,06,29,08,57,15.20
2009,06,29,08,58,15.20
2009,06,29,08,59,15.20
2009,06,29,09,00,15.20
2009,06,29,09,01,15.30
2009,06,29,09,02,15.30
2009,06,29,09,03,15.30
2009,06,29,09,04,15.30
2009,06,29,09,05,15.30
2009,06,29,09,06,15.40
2009,06,29,09,07,15.40
2009,06,29,09,08,15.50
2009,06,29,09,09,15.60
2009,06,29,09,10,15.60
2009,06,29,09,11,15.60
2009,06,29,09,12,15.60
2009,06,29,09,13,15.60
2009,06,29,09,14,15.60
2009,06,29,09,15,15.60
2009,06,29,09,16,15.50
2009,06,29,09,17,15.50
2009,06,29,09,18,15.50
2009,06,29,09,19,15.40
2009,06,29,09,20,15.40
2009,06,29,09,21,15.40
2009,06,29,09,22,15.50
2009,06,29,09,23,15.50
2009,06,29,09,24,15.50
2009,06,29,09,25,15.60
2009,06,29,09,26,15.60
2009,06,29,09,27,15.60
2009,06,29,09,28,15.60
2009,06,29,09,29,15.60
2009,06,29,09,30,15.60
2009,06,29,09,31,15.60
2009,06,29,09,32,15.70
2009,06,29,09,33,15.70
2009,06,29,09,34,15.70
2009,06,29,09,35,15.80
2009,06,29,09,36,15.80
2009,06,29,09,37,15.80
2009,06,29,09,38,15.80
2009,06,29,09,39,15.90
2009,06,29,09,40,16.00
2009,06,29,09,41,16.10
2009,06,29,09,42,16.10
2009,06,29,09,43,16.10
2009,06,29,09,44,16.00
2009,06,29,09,45,15.90
2009,06,29,09,46,15.90
2009,06,29,09,47,15.90
2009,06,29,09,48,16.00
2009,06,29,09,49,16.10
2009,06,29,09,50,16.20
2009,06,29,09,51,16.20
2009,06,29,09,52,16.30
2009,06,29,09,53,16.30
2009,06,29,09,54,16.30
2009,06,29,09,55,16.30
2009,06,29,09,56,16.30
2009,06,29,09,57,16.30
2009,06,29,09,58,16.30
2009,06,29,09,59,16.30
2009,06,29,10,00,16.20
2009,06,29,10,01,16.20
2009,06,29,10,02,16.10
2009,06,29,10,03,16.10
2009,06,29,10,04,16.10
2009,06,29,10,05,16.10
2009,06,29,10,06,16.10
2009,06,29,10,07,16.10
2009,06,29,10,08,16.10
2009,06,29,10,09,16.10
2009,06,29,10,10,16.10
2009,06,29,10,11,16.10
2009,06,29,10,12,16.10
2009,06,29,10,13,16.20
2009,06,29,10,14,16.40
2009,06,29,10,15,16.60
2009,06,29,10,16,16.70
2009,06,29,10,17,16.80
2009,06,29,10,18,16.80
2009,06,29,10,19,16.80
2009,06,29,10,20,16.80
2009,06,29,10,21,16.90
2009,06,29,10,22,17.00
2009,06,29,10,23,17.00
2009,06,29,10,24,17.00
2009,06,29,10,25,17.00
2009,06,29,10,26,17.10
2009,06,29,10,27,17.10
2009,06,29,10,28,17.10
2009,06,29,10,29,17.10
2009,06,29,10,30,17.10
2009,06,29,10,31,17.30
2009,06,29,10,32,17.40
2009,06,29,10,33,17.40
2009,06,29,10,34,17.50
2009,06,29,10,35,17.50
2009,06,29,10,36,17.40
2009,06,29,10,37,17.40
2009,06,29,10,38,17.40
2009,06,29,10,39,17.40
2009,06,29,10,40,17.40
2009,06,29,10,41,17.40
2009,06,29,10,42,17.40
2009,06,29,10,43,17.50
2009,06,29,10,44,17.60
2009,06,29,10,45,17.70
2009,06,29,10,46,17.80
2009,06,29,10,47,17.80
2009,06,29,10,48,17.80
2009,06,29,10,49,17.90
2009,06,29,10,50,17.90
2009,06,29,10,51,17.90
2009,06,29,10,52,17.80
2009,06,29,10,53,17.80
2009,06,29,10,54,17.80
2009,06,29,10,55,17.90
2009,06,29,10,56,17.90
2009,06,29,10,57,17.90
2009,06,29,10,58,18.00
2009,06,29,10,59,18.10
2009,06,29,11,00,18.00
2009,06,29,11,01,17.90
2009,06,29,11,02,17.90
2009,06,29,11,03,17.90
2009,06,29,11,04,17.90
2009,06,29,11,05,17.90
2009,06,29,11,06,18.00
2009,06,29,11,07,18.10
2009,06,29,11,08,18.20
2009,06,29,11,09,18.10
2009,06,29,11,10,17.90
2009,06,29,11,11,17.90
2009,06,29,11,12,17.90
2009,06,29,11,13,17.90
2009,06,29,11,14,17.90
2009,06,29,11,15,17.90
2009,06,29,11,16,17.90
2009,06,29,11,17,17.90
2009,06,29,11,18,17.90
2009,06,29,11,19,17.90
2009,06,29,11,20,17.90
2009,06,29,11,21,17.90
2009,06,29,11,22,17.90
2009,06,29,11,23,17.90
2009,06,29,11,24,18.00
2009,06,29,11,25,18.20
2009,06,29,11,26,18.30
2009,06,29,11,27,18.40
2009,06,29,11,28,18.60
2009,06,29,11,29,18.60
2009,06,29,11,30,18.60
2009,06,29,11,31,18.60
2009,06,29,11,32,18.60
2009,06,29,11,33,18.60
2009,06,29,11,34,18.70
2009,06,29,11,35,18.70
2009,06,29,11,36,18.70
2009,06,29,11,37,18.60
2009,06,29,11,38,18.50
2009,06,29,11,39,18.40
2009,06,29,11,40,18.20
2009,06,29,11,41,18.20
2009,06,29,11,42,18.10
2009,06,29,11,43,17.90
2009,06,29,11,44,17.80
2009,06,29,11,45,17.90
2009,06,29,11,46,18.00
2009,06,29,11,47,18.10
2009,06,29,11,48,17.90
2009,06,29,11,49,17.90
2009,06,29,11,50,17.90
2009,06,29,11,51,17.90
2009,06,29,11,52,17.90
2009,06,29,11,53,18.10
2009,06,29,11,54,18.10
2009,06,29,11,55,18.20
2009,06,29,11,56,18.20
2009,06,29,11,57,18.20
2009,06,29,11,58,18.20
2009,06,29,11,59,18.20
2009,06,29,12,00,18.30
2009,06,29,12,01,18.30
2009,06,29,12,02,18.40
2009,06,29,12,03,18.40
2009,06,29,12,04,18.30
2009,06,29,12,05,18.30
2009,06,29,12,06,18.40
2009,06,29,12,07,18.40
2009,06,29,12,08,18.40
2009,06,29,12,09,18.40
2009,06,29,12,10,18.40
2009,06,29,12,11,18.40
2009,06,29,12,12,18.40
2009,06,29,12,13,18.50
2009,06,29,12,14,18.50
2009,06,29,12,15,18.50
2009,06,29,12,16,18.60
2009,06,29,12,17,18.50
2009,06,29,12,18,18.40
2009,06,29,12,19,18.30
2009,06,29,12,20,18.10
2009,06,29,12,21,18.00
2009,06,29,12,22,17.90
2009,06,29,12,23,17.80
2009,06,29,12,24,17.70
2009,06,29,12,25,17.60
2009,06,29,12,26,17.40
2009,06,29,12,27,17.40
2009,06,29,12,28,17.30
2009,06,29,12,29,17.20
2009,06,29,12,30,17.10
2009,06,29,12,31,17.00
2009,06,29,12,32,17.00
2009,06,29,12,33,17.10
2009,06,29,12,34,17.10
2009,06,29,12,35,17.20
2009,06,29,12,36,17.20
2009,06,29,12,37,17.40
2009,06,29,12,38,17.40
2009,06,29,12,39,17.50
2009,06,29,12,40,17.50
2009,06,29,12,41,17.50
2009,06,29,12,42,17.60
2009,06,29,12,43,17.70
2009,06,29,12,44,17.90
2009,06,29,12,45,17.90
2009,06,29,12,46,17.90
2009,06,29,12,47,18.00
2009,06,29,12,48,18.10
2009,06,29,12,49,18.00
2009,06,29,12,50,17.90
2009,06,29,12,51,17.80
2009,06,29,12,52,17.70
2009,06,29,12,53,17.50
2009,06,29,12,54,17.40
2009,06,29,12,55,17.30
2009,06,29,12,56,17.30
2009,06,29,12,57,17.30
2009,06,29,12,58,17.30
2009,06,29,12,59,17.30
2009,06,29,13,00,17.30
2009,06,29,13,01,17.40
2009,06,29,13,02,17.40
2009,06,29,13,03,17.50
2009,06,29,13,04,17.50
2009,06,29,13,05,17.50
2009,06,29,13,06,17.40
2009,06,29,13,07,17.40
2009,06,29,13,08,17.40
2009,06,29,13,09,17.50
2009,06,29,13,10,17.50
2009,06,29,13,11,17.40
2009,06,29,13,12,17.40
2009,06,29,13,13,17.30
2009,06,29,13,14,17.30
2009,06,29,13,15,17.30
2009,06,29,13,16,17.40
2009,06,29,13,17,17.60
2009,06,29,13,18,17.70
2009,06,29,13,19,17.80
2009,06,29,13,20,17.90
2009,06,29,13,21,17.90
2009,06,29,13,22,18.00
2009,06,29,13,23,18.10
2009,06,29,13,24,18.20
2009,06,29,13,25,18.20
2009,06,29,13,26,18.20
2009,06,29,13,27,18.20
2009,06,29,13,28,18.20
2009,06,29,13,29,18.20
2009,06,29,13,30,18.20
2009,06,29,13,31,18.30
2009,06,29,13,32,18.40
2009,06,29,13,33,18.50
2009,06,29,13,34,18.50
2009,06,29,13,35,18.50
2009,06,29,13,36,18.40
2009,06,29,13,37,18.30
2009,06,29,13,38,18.20
2009,06,29,13,39,18.10
2009,06,29,13,40,18.10
2009,06,29,13,41,18.10
2009,06,29,13,42,18.20
2009,06,29,13,43,18.20
2009,06,29,13,44,18.20
2009,06,29,13,45,18.20
2009,06,29,13,46,18.30
2009,06,29,13,47,18.20
2009,06,29,13,48,18.20
2009,06,29,13,49,18.10
2009,06,29,13,50,18.00
2009,06,29,13,51,17.90
2009,06,29,13,52,17.90
2009,06,29,13,53,17.90
2009,06,29,13,54,18.00
2009,06,29,13,55,18.10
2009,06,29,13,56,18.20
2009,06,29,13,57,18.20
2009,06,29,13,58,18.40
2009,06,29,13,59,18.50
2009,06,29,14,00,18.60
2009,06,29,14,01,18.60
2009,06,29,14,02,18.70
2009,06,29,14,03,18.80
2009,06,29,14,04,18.90
2009,06,29,14,05,18.90
2009,06,29,14,06,18.80
2009,06,29,14,07,18.70
2009,06,29,14,08,18.60
2009,06,29,14,09,18.50
2009,06,29,14,10,18.30
2009,06,29,14,11,18.10
2009,06,29,14,12,18.10
2009,06,29,14,13,18.00
2009,06,29,14,14,17.90
2009,06,29,14,15,17.90
2009,06,29,14,16,18.00
2009,06,29,14,17,18.10
2009,06,29,14,18,18.20
2009,06,29,14,19,18.40
2009,06,29,14,20,18.60
2009,06,29,14,21,18.70
2009,06,29,14,22,18.70
2009,06,29,14,23,18.60
2009,06,29,14,24,18.50
2009,06,29,14,25,18.50
2009,06,29,14,26,18.50
2009,06,29,14,27,18.50
2009,06,29,14,28,18.60
2009,06,29,14,29,18.80
2009,06,29,14,30,19.10
2009,06,29,14,31,19.20
2009,06,29,14,32,19.30
2009,06,29,14,33,19.30
2009,06,29,14,34,19.30
2009,06,29,14,35,19.30
2009,06,29,14,36,19.10
2009,06,29,14,37,19.10
2009,06,29,14,38,19.00
2009,06,29,14,39,18.90
2009,06,29,14,40,18.90
2009,06,29,14,41,18.80
2009,06,29,14,42,18.70
2009,06,29,14,43,18.70
2009,06,29,14,44,18.60
2009,06,29,14,45,18.50
2009,06,29,14,46,18.50
2009,06,29,14,47,18.50
2009,06,29,14,48,18.40
2009,06,29,14,49,18.30
2009,06,29,14,50,18.30
2009,06,29,14,51,18.30
2009,06,29,14,52,18.20
2009,06,29,14,53,18.20
2009,06,29,14,54,18.20
2009,06,29,14,55,18.30
2009,06,29,14,56,18.40
2009,06,29,14,57,18.40
2009,06,29,14,58,18.40
2009,06,29,14,59,18.40
2009,06,29,15,00,18.50
2009,06,29,15,01,18.60
2009,06,29,15,02,18.70
2009,06,29,15,03,18.80
2009,06,29,15,04,18.80
2009,06,29,15,05,18.80
2009,06,29,15,06,18.70
2009,06,29,15,07,18.70
2009,06,29,15,08,18.60
2009,06,29,15,09,18.60
2009,06,29,15,10,18.60
2009,06,29,15,11,18.70
2009,06,29,15,12,18.80
2009,06,29,15,13,18.80
2009,06,29,15,14,18.70
2009,06,29,15,15,18.70
2009,06,29,15,16,18.70
2009,06,29,15,17,18.60
2009,06,29,15,18,18.60
2009,06,29,15,19,18.60
2009,06,29,15,20,18.70
2009,06,29,15,21,18.80
2009,06,29,15,22,19.00
2009,06,29,15,23,19.10
2009,06,29,15,24,19.20
2009,06,29,15,25,19.20
2009,06,29,15,26,19.30
2009,06,29,15,27,19.30
2009,06,29,15,28,19.40
2009,06,29,15,29,19.50
2009,06,29,15,30,19.60
2009,06,29,15,31,19.60
2009,06,29,15,32,19.60
2009,06,29,15,33,19.50
2009,06,29,15,34,19.40
2009,06,29,15,35,19.30
2009,06,29,15,36,19.10
2009,06,29,15,37,19.00
2009,06,29,15,38,18.90
2009,06,29,15,39,18.90
2009,06,29,15,40,18.90
2009,06,29,15,41,18.80
2009,06,29,15,42,18.70
2009,06,29,15,43,18.70
2009,06,29,15,44,18.70
2009,06,29,15,45,18.60
2009,06,29,15,46,18.70
2009,06,29,15,47,18.60
2009,06,29,15,48,18.60
2009,06,29,15,49,18.60
2009,06,29,15,50,18.60
2009,06,29,15,51,18.70
2009,06,29,15,52,18.60
2009,06,29,15,53,18.60
2009,06,29,15,54,18.70
2009,06,29,15,55,18.70
2009,06,29,15,56,18.70
2009,06,29,15,57,18.60
2009,06,29,15,58,18.50
2009,06,29,15,59,18.50
2009,06,29,16,00,18.50
2009,06,29,16,01,18.50
2009,06,29,16,02,18.50
2009,06,29,16,03,18.50
2009,06,29,16,04,18.60
2009,06,29,16,05,18.60
2009,06,29,16,06,18.70
2009,06,29,16,07,18.60
2009,06,29,16,08,18.50
2009,06,29,16,09,18.50
2009,06,29,16,10,18.60
2009,06,29,16,11,18.70
2009,06,29,16,12,18.80
2009,06,29,16,13,18.80
2009,06,29,16,14,18.90
2009,06,29,16,15,19.00
2009,06,29,16,16,19.10
2009,06,29,16,17,19.10
2009,06,29,16,18,19.10
2009,06,29,16,19,19.10
2009,06,29,16,20,19.20
2009,06,29,16,21,19.40
2009,06,29,16,22,19.60
2009,06,29,16,23,19.70
2009,06,29,16,24,19.60
2009,06,29,16,25,19.50
2009,06,29,16,26,19.40
2009,06,29,16,27,19.20
2009,06,29,16,28,19.10
2009,06,29,16,29,19.10
2009,06,29,16,30,19.10
2009,06,29,16,31,19.10
2009,06,29,16,32,19.20
2009,06,29,16,33,19.30
2009,06,29,16,34,19.40
2009,06,29,16,35,19.40
2009,06,29,16,36,19.30
2009,06,29,16,37,19.30
2009,06,29,16,38,19.20
2009,06,29,16,39,19.20
2009,06,29,16,40,19.10
2009,06,29,16,41,19.10
2009,06,29,16,42,19.10
2009,06,29,16,43,19.20
2009,06,29,16,44,19.40
2009,06,29,16,45,19.50
2009,06,29,16,46,19.60
2009,06,29,16,47,19.50
2009,06,29,16,48,19.40
2009,06,29,16,49,19.30
2009,06,29,16,50,19.10
2009,06,29,16,51,19.10
2009,06,29,16,52,19.10
2009,06,29,16,53,19.10
2009,06,29,16,54,19.20
2009,06,29,16,55,19.30
2009,06,29,16,56,19.40
2009,06,29,16,57,19.50
2009,06,29,16,58,19.50
2009,06,29,16,59,19.60
2009,06,29,17,00,19.60
2009,06,29,17,01,19.80
2009,06,29,17,02,19.90
2009,06,29,17,03,20.10
2009,06,29,17,04,20.20
2009,06,29,17,05,20.20
2009,06,29,17,06,20.00
2009,06,29,17,07,19.70
2009,06,29,17,08,19.50
2009,06,29,17,09,19.30
2009,06,29,17,10,19.10
2009,06,29,17,11,18.90
2009,06,29,17,12,18.70
2009,06,29,17,13,18.70
2009,06,29,17,14,18.60
2009,06,29,17,15,18.60
2009,06,29,17,16,18.50
2009,06,29,17,17,18.50
2009,06,29,17,18,18.50
2009,06,29,17,19,18.40
2009,06,29,17,20,18.40
2009,06,29,17,21,18.50
2009,06,29,17,22,18.60
2009,06,29,17,23,18.70
2009,06,29,17,24,18.80
2009,06,29,17,25,18.90
2009,06,29,17,26,18.90
2009,06,29,17,27,18.90
2009,06,29,17,28,19.00
2009,06,29,17,29,18.90
2009,06,29,17,30,18.90
2009,06,29,17,31,18.80
2009,06,29,17,32,18.70
2009,06,29,17,33,18.70
2009,06,29,17,34,18.80